Temp
23 23 22 23 27 25 27 28 26 28 28 28 28 28 29 27 28 28 20 20 21 20 19 21 21 21 21 22 22 22 22 22 21 21 21 20 20 20 19 18 19 19 19 19 19 19 19 19 19
23 22 22 23 27 28 28 26 28 29 27 27 27 27 27 27 24 23 22 20 20 20 19 19 20 20 21 21 21 21 21 21 21 21 21 21 20 19 19 18 18 18 19 19 19 19 19 19 18
23 22 25 25 24 28 29 27 28 28 27 28 28 26 26 26 24 24 21 21 21 21 20 20 20 20 20 20 20 20 20 21 21 21 21 20 20 20 19 18 18 17 17 19 19 19 19 19 19
22 23 22 26 27 26 27 28 28 28 28 28 27 27 25 22 24 22 22 22 21 21 22 21 21 20 20 21 21 21 21 21 21 21 21 20 19 19 18 18 18 17 16 18 18 18 18 18 18
21 23 25 26 26 25 26 26 27 29 28 27 27 26 25 22 22 22 22 22 22 21 21 21 21 20 20 21 21 21 21 21 21 21 21 20 19 18 18 18 18 17 17 18 18 18 18 18 18
25 23 26 27 26 26 26 26 28 29 28 27 27 26 25 20 20 20 20 21 20 21 20 20 20 20 20 20 20 21 21 21 20 20 20 19 19 18 18 18 18 17 17 18 18 18 18 17 18
25 25 25 24 25 27 28 27 29 29 28 29 27 28 24 21 20 20 20 21 21 20 19 19 18 19 19 20 20 20 20 20 20 20 19 19 19 18 18 18 18 17 17 18 18 18 18 17 17
24 25 24 23 25 27 28 28 28 29 29 26 27 29 27 23 19 19 18 18 19 19 19 19 19 18 19 19 19 20 19 19 19 19 19 18 18 18 18 18 17 17 17 18 18 18 18 17 16
22 26 25 25 26 27 27 27 28 27 28 27 26 26 24 20 18 18 17 17 17 18 18 19 19 18 18 19 19 19 19 19 19 18 18 18 17 17 18 17 17 17 17 18 18 18 18 18 16
26 25 26 25 26 26 26 26 28 29 29 28 26 22 20 19 19 18 18 18 17 17 17 18 19 18 18 18 18 18 18 17 17 17 18 18 18 18 17 17 17 17 17 17 18 18 18 18 16
23 26 25 26 25 25 26 27 27 28 29 29 29 25 21 20 20 19 18 18 18 18 17 17 18 18 18 18 18 18 18 18 17 18 18 18 18 17 17 18 17 17 17 16 16 16 17 17 16
25 24 25 26 25 25 26 26 27 27 30 28 28 24 21 21 22 21 20 18 18 17 17 17 17 18 18 18 18 18 18 18 18 18 18 18 18 18 18 18 18 18 17 16 16 16 16 17 17
24 24 24 25 25 25 24 26 27 27 28 26 24 23 22 22 22 21 21 19 18 17 17 18 18 18 18 17 17 17 17 18 18 18 18 18 18 18 18 18 17 17 17 17 16 16 16 16 16
23 24 24 24 26 25 25 26 25 28 27 26 24 26 24 23 23 22 21 21 19 19 17 18 18 18 18 17 17 17 17 17 18 18 18 18 17 17 18 17 17 17 17 17 16 16 15 15 15
23 23 24 25 25 26 24 26 26 25 25 27 25 25 24 23 22 22 22 21 20 20 19 18 18 18 18 17 17 16 17 17 17 18 18 18 17 17 17 17 17 17 16 16 15 15 14 13 13
24 23 25 26 25 25 25 27 26 24 25 27 26 25 24 24 23 23 22 21 20 20 19 19 18 18 18 17 17 17 17 17 17 17 17 17 16 16 16 15 16 16 15 15 15 14 14 13 13
22 25 23 25 24 25 26 27 27 25 25 26 26 25 24 24 23 22 21 21 20 20 19 18 18 19 19 17 17 17 17 17 16 16 17 17 17 17 16 16 16 16 15 15 15 14 13 13 12
23 23 23 23 25 24 25 26 27 26 25 26 26 26 24 24 24 23 21 21 21 20 19 19 19 19 18 17 17 17 17 17 16 17 17 17 17 17 17 17 16 15 15 14 14 14 13 12 12
22 22 22 23 23 24 24 24 26 26 24 26 27 27 26 24 24 20 18 18 18 19 18 18 17 17 17 16 17 17 16 17 16 16 17 17 17 16 16 15 15 15 14 14 14 13 13 12 11
21 22 23 23 22 23 25 25 26 25 26 26 26 26 25 23 23 21 18 17 17 18 18 17 17 17 17 17 16 16 16 16 16 17 17 17 17 16 15 15 14 13 13 13 13 12 12 11 11
21 21 22 23 23 22 22 25 25 26 24 24 24 23 22 22 21 19 17 17 16 16 16 17 16 16 17 16 16 16 17 17 16 17 18 18 17 16 15 15 14 13 13 12 12 12 12 11 11
21 22 22 22 23 24 22 24 24 25 25 24 24 22 21 19 18 17 16 16 16 16 16 16 16 17 16 17 17 17 18 17 18 19 18 17 17 16 16 15 14 13 13 11 12 12 11 11 10
23 22 22 22 22 21 22 22 26 22 26 27 24 22 19 17 17 17 17 16 15 15 15 16 16 16 17 17 17 18 18 18 18 18 17 17 16 16 15 15 14 13 12 12 11 10 10 11 10
22 22 20 19 20 22 22 23 23 25 25 25 23 21 18 17 16 16 14 14 14 15 15 16 16 16 16 16 17 18 19 18 18 17 17 16 16 15 15 14 13 13 12 12 11 10 10 10 10
22 23 22 22 21 23 20 20 24 24 25 24 24 23 19 17 16 15 14 14 14 14 15 15 16 15 16 17 18 19 19 18 18 17 16 15 15 14 14 13 13 13 13 11 10 9 9 9 9
21 22 22 21 22 23 19 21 24 24 24 20 20 19 17 17 17 17 16 16 15 15 15 15 15 15 17 17 18 18 18 17 17 16 15 14 14 14 13 13 12 12 12 11 10 8 8 8 8
21 21 21 21 17 18 22 22 23 23 21 20 21 18 18 17 17 17 16 15 15 15 15 15 16 16 17 18 17 17 17 16 15 14 14 14 14 15 13 12 11 11 11 10 9 8 7 7 7
22 21 21 19 21 21 21 20 23 23 23 21 20 19 18 17 16 16 16 15 15 15 15 15 16 16 17 17 16 16 15 14 14 15 15 14 14 14 14 13 12 11 10 10 9 7 7 7 6
21 21 20 20 19 22 21 22 20 23 22 22 22 19 19 17 17 17 16 15 15 15 14 15 15 15 15 15 15 15 15 15 14 14 13 13 14 13 13 12 12 10 9 9 8 7 6 6 6
20 22 22 21 22 18 18 20 20 21 21 20 20 19 18 17 17 17 17 15 15 15 14 14 14 14 14 14 14 14 14 13 12 13 13 13 12 12 12 12 11 10 8 7 6 6 6 5 5
Height
784 784 784 785 795 796 797 791 786 780 778 770 769 772 775 776 781 793 782 784 784 789 794 799 802 806 809 811 812 813 816 818 821 822 824 827 828 829 831 833 835 836 836 837 838 839 840 841 841
783 783 785 788 795 796 794 787 781 773 771 768 769 772 776 783 778 780 782 784 787 791 797 801 804 808 811 813 815 817 819 821 822 824 825 827 829 832 833 834 836 836 837 838 839 840 841 842 843
782 783 784 792 803 795 792 783 776 771 768 768 771 771 774 781 780 781 782 784 788 792 797 801 804 808 811 814 816 817 819 821 823 825 826 827 829 831 833 835 836 836 838 838 838 839 840 841 844
782 784 791 792 796 791 788 780 774 771 769 768 770 778 777 780 779 781 782 784 787 790 794 798 802 805 808 811 813 816 818 820 823 825 826 828 831 833 834 836 836 838 839 840 840 841 842 842 844
782 786 794 796 797 793 786 780 775 773 772 772 771 781 782 781 780 781 782 784 786 790 794 798 803 806 808 811 813 816 818 820 822 824 826 829 832 834 835 837 838 839 840 840 841 842 843 844 845
784 790 797 799 798 789 783 778 773 772 771 773 774 777 781 781 781 781 783 786 788 792 797 800 805 807 809 811 813 815 817 820 822 824 827 829 832 834 836 837 839 839 840 840 841 842 842 842 843
786 792 802 806 802 791 780 774 773 771 771 771 769 778 781 782 781 783 785 787 790 794 798 801 805 808 811 813 814 816 819 821 823 825 828 830 832 834 835 836 837 839 840 841 841 841 842 843 843
784 789 802 805 802 793 777 772 769 769 771 770 769 776 779 778 782 784 787 791 793 796 798 801 804 807 809 811 814 816 819 821 823 825 827 829 831 833 834 835 836 837 838 839 840 841 841 842 843
785 794 800 799 798 789 779 780 770 768 769 769 771 771 774 776 781 785 788 791 794 795 797 799 801 803 807 810 813 816 819 821 823 825 827 829 831 833 834 836 836 837 837 837 837 838 839 840 842
784 797 793 787 784 785 781 780 772 771 770 771 770 774 775 778 780 782 785 788 790 792 793 797 800 803 806 808 810 814 816 819 821 823 825 828 830 832 834 834 835 835 835 837 837 837 839 839 841
790 789 785 781 780 780 779 774 770 772 776 766 766 767 775 778 780 781 784 785 785 789 792 794 797 801 803 805 808 811 814 817 820 822 824 826 828 830 831 832 832 834 834 835 836 837 838 838 839
790 783 780 775 777 778 777 774 773 770 763 761 761 765 771 773 773 774 780 783 784 784 787 791 794 795 799 802 805 809 812 815 817 820 822 824 825 826 827 828 829 831 832 832 833 834 834 835 836
786 783 781 775 775 775 774 772 771 767 758 760 763 764 765 769 771 773 776 779 782 782 783 787 791 793 796 800 804 807 809 813 816 818 819 820 822 823 824 826 827 829 830 831 830 832 833 832 833
784 781 778 774 768 771 773 770 772 758 755 758 760 758 759 761 764 770 772 773 775 778 779 782 786 790 795 798 802 806 809 812 814 815 816 818 820 822 823 824 825 826 827 828 829 828 829 829 830
780 786 777 770 769 768 770 773 767 760 757 756 756 758 760 761 763 760 762 765 769 772 777 780 784 788 792 796 800 803 805 808 810 812 815 816 818 820 822 822 823 824 824 825 826 826 827 828 829
784 786 785 770 770 769 769 774 762 758 757 755 754 754 755 754 754 758 761 764 767 771 773 776 781 786 790 793 795 799 803 806 808 810 813 816 818 820 821 821 821 821 821 822 824 825 826 825 825
791 789 791 778 771 770 769 770 757 757 757 754 753 753 753 753 755 755 758 760 763 767 770 773 777 780 785 790 795 799 802 805 808 810 812 813 815 816 817 819 819 819 819 817 819 819 821 820 822
791 792 790 790 772 773 772 768 756 756 758 755 751 749 751 750 747 751 754 757 760 763 766 769 773 777 782 788 793 797 800 804 806 808 808 810 812 813 813 813 815 817 817 815 815 815 816 817 819
787 791 791 780 774 776 771 769 758 750 753 748 744 742 744 745 745 749 750 752 753 757 760 763 767 773 779 784 790 795 797 799 803 804 805 807 809 810 811 811 812 812 812 811 811 812 812 813 814
788 791 787 777 775 776 767 763 751 748 743 741 740 737 739 741 742 744 747 748 749 750 754 759 764 768 774 779 783 788 793 797 800 801 802 804 805 806 805 806 807 808 808 808 807 807 807 807 810
787 789 786 782 776 774 774 758 752 742 743 739 738 739 740 740 740 742 744 746 747 749 752 756 760 764 769 775 780 785 790 794 796 798 799 801 802 802 803 803 803 803 802 803 802 803 803 803 803
788 774 777 779 781 783 776 775 758 746 743 738 735 739 739 739 741 743 743 744 744 745 746 750 753 759 765 769 775 780 785 789 792 795 797 799 799 799 800 801 800 800 800 800 799 798 798 798 799
773 771 775 777 780 788 781 786 747 754 740 730 732 737 739 740 740 740 742 742 743 744 745 748 753 757 763 768 773 777 782 786 789 792 793 795 797 797 797 796 796 795 795 795 794 795 795 794 795
768 773 783 790 787 789 776 778 765 751 740 731 732 736 739 741 742 742 741 741 741 743 746 748 751 756 762 768 772 776 779 783 787 790 791 792 792 793 792 792 791 790 789 789 790 790 789 788 787
771 776 788 789 793 780 779 786 751 740 729 731 731 730 736 740 742 742 742 741 741 741 744 748 752 755 760 763 766 770 774 778 781 783 785 788 788 787 788 787 785 785 784 783 783 784 784 785 785
773 773 788 796 787 773 783 773 746 730 726 733 734 735 737 739 739 741 742 743 743 744 745 747 752 754 755 760 764 766 769 773 776 778 781 782 783 782 782 782 781 780 779 778 779 779 780 781 782
772 779 770 781 796 794 761 749 737 728 732 737 731 737 737 737 736 738 741 742 742 742 744 746 748 752 756 759 762 767 770 773 776 777 777 778 777 776 776 775 775 774 774 775 774 774 775 775 776
761 762 780 787 787 774 761 760 741 731 728 729 729 733 733 735 738 738 740 741 741 741 743 747 748 751 755 758 760 762 766 769 772 772 772 773 774 772 771 770 768 768 768 769 768 768 769 769 770
767 769 773 772 777 766 761 742 728 723 723 724 722 729 730 730 731 733 734 736 739 743 744 744 747 750 752 757 759 760 762 764 766 768 769 768 767 766 764 764 763 762 761 762 762 762 763 762 762
756 755 757 767 760 773 771 731 720 717 719 724 724 724 726 728 727 729 731 734 736 737 741 744 747 749 753 755 756 757 759 760 763 766 764 764 765 762 760 758 756 756 756 756 755 754 754 755 756
Wind_Speed
2 1 3 2 2 0 1 2 2 3 3 1 5 3 4 4 2 1 1 8 13 26 24 26 25 25 24 24 24 24 23 22 21 20 19 17 15 14 14 13 11 10 10 9 9 9 8 8 9
2 3 2 2 1 3 2 2 2 3 2 10 6 4 2 4 2 5 9 8 15 24 22 23 25 24 23 22 21 21 20 20 19 18 17 16 15 13 13 12 10 10 9 8 8 7 8 8 9
3 3 0 2 2 2 3 2 3 3 6 0 3 4 2 3 2 8 4 12 19 22 23 24 25 24 23 22 21 20 20 19 18 17 16 15 14 14 13 12 10 10 8 7 7 7 7 8 8
2 2 3 1 2 0 1 3 5 8 1 3 3 5 3 4 3 4 12 13 19 24 25 26 26 25 24 23 22 21 20 19 18 16 14 14 14 13 13 11 10 8 7 6 5 5 5 6 7
4 2 1 2 1 4 3 5 4 6 1 1 1 5 3 1 2 6 16 16 19 24 25 25 25 24 23 22 21 21 19 18 17 15 13 13 12 12 11 9 8 6 4 5 4 3 3 3 5
2 1 1 2 4 4 5 4 3 3 2 3 2 8 3 1 6 12 15 16 17 23 21 21 21 22 22 21 20 19 19 17 15 14 13 12 11 11 9 7 6 4 2 3 2 2 2 3 4
3 2 2 1 3 3 4 6 1 4 4 3 5 6 2 4 7 13 13 16 19 20 20 20 19 18 18 18 18 17 17 16 14 13 12 11 11 10 7 4 3 3 2 1 1 1 2 2 4
3 2 2 1 2 1 5 10 2 3 2 2 1 2 3 5 13 14 13 13 18 18 18 19 19 19 19 19 18 17 16 15 14 13 12 11 10 8 5 1 2 4 3 2 2 2 4 4 5
2 1 1 2 1 6 3 5 4 1 3 2 2 1 1 18 19 15 14 12 13 17 19 20 20 22 21 19 18 16 15 14 14 13 12 11 9 7 3 1 1 1 2 3 4 5 6 7 8
2 1 4 3 2 3 6 3 2 1 2 2 2 3 9 19 21 20 18 17 16 17 20 19 20 21 20 20 19 18 18 16 15 14 13 12 9 7 4 2 2 2 3 4 4 4 6 7 8
3 3 3 3 5 3 4 5 3 4 3 5 6 8 12 16 19 18 18 20 23 20 19 20 22 22 22 22 22 21 19 18 16 16 15 13 11 9 8 6 4 4 4 3 4 4 5 7 9
3 5 4 3 3 3 5 3 4 4 5 3 4 8 12 16 17 23 20 18 21 23 22 21 22 27 25 24 23 22 21 20 18 17 16 15 14 13 12 10 8 7 6 5 5 6 7 9 11
4 2 2 7 9 7 4 9 7 8 10 4 4 10 15 15 17 18 18 19 20 22 23 26 25 26 26 23 22 21 21 20 19 18 18 17 17 16 15 14 11 9 9 8 8 7 7 9 11
1 5 10 9 12 5 7 7 6 12 7 9 8 12 14 17 19 16 19 22 24 23 24 27 28 25 24 22 21 21 19 19 19 19 20 18 17 17 16 15 14 12 12 12 11 10 11 10 11
3 6 7 6 2 2 4 4 10 0 4 7 9 8 8 11 15 24 25 24 25 24 21 24 28 26 24 22 21 21 21 20 19 19 19 18 18 17 16 15 15 15 15 14 14 13 11 8 9
2 0 3 1 3 0 3 4 4 3 6 9 9 8 11 16 20 21 20 20 19 19 22 24 24 25 24 24 23 22 20 19 18 17 16 16 16 15 16 14 16 16 15 15 16 15 15 14 13
2 4 2 5 1 2 1 6 4 4 3 7 6 7 9 12 14 21 19 20 19 20 20 22 25 27 27 24 20 19 17 16 16 13 11 12 12 14 15 18 17 16 17 15 15 16 17 16 17
3 2 2 4 1 2 6 11 10 6 6 9 9 7 7 9 17 15 18 19 19 20 21 24 27 27 25 23 20 18 16 14 13 13 13 11 10 12 14 15 16 15 18 18 17 16 17 15 15
3 2 5 8 6 3 6 7 12 12 9 13 13 12 10 11 6 7 8 11 17 20 22 24 25 25 26 25 21 17 17 17 15 13 11 9 10 12 13 13 14 17 18 19 18 15 14 14 13
5 4 7 9 3 3 7 14 14 11 9 7 10 10 8 5 8 9 7 6 11 18 22 22 22 27 27 26 24 18 19 15 13 11 9 10 11 13 13 14 15 15 17 18 18 15 12 12 15
4 5 4 6 4 2 7 7 4 3 5 7 7 6 7 8 8 7 5 6 7 12 17 20 22 28 28 25 23 16 13 10 10 9 11 12 14 15 14 16 17 18 16 16 15 14 14 11 19
4 8 5 4 2 4 5 8 5 6 12 8 7 3 6 6 3 4 6 8 11 13 18 22 27 28 28 26 24 20 18 10 10 9 11 12 13 12 12 14 16 17 17 18 17 14 15 14 14
5 4 3 1 3 2 3 4 6 3 10 12 6 4 4 5 6 7 7 9 10 15 18 23 24 24 25 25 23 22 15 14 10 9 10 11 12 13 13 14 15 17 18 19 17 17 18 18 17
3 3 4 3 1 5 5 6 3 3 5 4 3 4 5 6 6 6 7 8 11 15 18 22 25 26 25 24 21 20 17 14 11 11 12 13 14 16 16 15 15 16 18 18 16 14 15 15 19
2 2 3 2 2 5 6 6 10 7 14 9 7 7 5 7 9 10 9 10 13 18 18 20 21 23 26 25 23 20 16 15 15 14 14 15 15 17 16 15 17 18 18 17 16 15 12 12 13
6 6 4 4 5 7 4 7 5 14 10 5 7 7 3 8 10 11 12 14 15 16 18 19 21 22 25 23 20 18 17 16 17 17 17 16 17 18 18 18 19 20 20 19 18 15 13 13 15
4 5 2 3 2 4 6 8 8 9 7 4 10 4 6 10 12 12 11 14 15 17 19 21 21 18 19 19 17 15 16 16 16 15 16 19 19 19 19 19 20 22 21 20 19 17 16 18 17
3 6 2 0 5 12 5 6 9 7 9 9 10 8 9 10 12 12 11 16 17 18 19 20 19 17 16 15 16 17 15 14 15 16 18 17 17 19 20 21 21 23 23 22 20 19 19 18 16
3 3 1 2 4 8 10 6 7 9 8 8 8 8 10 12 14 15 13 17 18 15 15 17 17 16 16 15 14 14 13 11 11 12 13 15 19 21 22 23 22 23 24 23 22 21 18 18 17
1 8 11 10 11 5 6 15 5 7 5 5 6 7 10 12 14 14 14 17 18 20 18 17 16 18 16 13 12 11 9 7 6 9 15 19 24 26 27 27 26 24 23 22 22 23 22 18 15
Wind_Direction
314 277 152 76 203 261 213 136 273 211 170 178 123 145 155 66 161 83 84 158 149 156 158 163 162 163 162 158 153 148 143 140 139 136 134 132 129 131 129 125 126 123 123 122 125 126 128 132 134
281 134 77 103 177 144 121 272 238 254 92 131 105 110 94 75 40 103 116 153 148 155 156 160 164 164 162 156 149 142 139 137 136 136 134 132 133 131 128 125 128 126 122 129 127 133 135 141 145
143 145 214 89 108 77 82 267 322 130 146 223 108 49 75 90 100 143 116 157 158 160 163 165 166 165 161 157 152 147 146 144 142 139 137 138 139 138 135 129 122 116 123 140 147 147 147 148 159
153 78 90 75 26 270 249 336 351 151 164 46 81 69 78 5 113 147 155 154 159 169 171 174 174 173 170 166 162 159 156 152 150 148 146 144 142 140 134 132 127 127 131 131 134 140 150 160 171
53 80 42 88 303 286 274 275 273 185 48 91 92 149 97 17 165 165 163 168 168 171 175 178 180 178 175 172 169 166 163 160 159 157 154 149 147 146 146 139 133 130 125 131 145 149 162 177 185
86 59 48 54 334 303 303 277 275 209 157 162 131 137 139 208 168 159 163 170 171 168 172 176 182 183 181 177 176 174 171 168 165 160 156 152 152 152 152 144 138 135 129 133 154 173 198 201 190
105 82 105 114 317 351 353 339 234 184 173 146 143 140 126 194 172 161 164 170 169 173 174 176 182 184 184 184 182 180 177 174 168 163 163 160 156 157 156 154 164 175 167 156 192 212 225 215 178
105 96 121 193 15 66 337 346 313 32 122 113 190 142 150 181 165 157 156 163 171 178 178 175 178 179 182 184 186 183 182 177 175 172 173 167 165 164 164 151 265 209 180 189 217 245 244 221 193
136 72 180 177 135 310 329 349 336 26 134 113 70 116 86 153 156 152 148 160 174 181 185 182 182 184 184 182 183 182 183 183 181 180 181 180 176 181 173 17 43 175 201 215 225 233 243 233 209
138 170 215 202 224 287 315 266 324 247 134 217 191 108 141 157 166 166 170 176 183 187 187 189 187 187 185 184 181 184 184 183 184 183 187 195 197 199 203 230 292 265 237 249 258 242 244 246 217
153 215 206 232 226 248 323 328 287 160 246 216 201 168 161 171 183 182 186 187 186 187 188 191 192 191 190 189 189 188 187 187 190 195 198 201 204 214 225 237 252 263 252 226 259 266 244 240 231
247 238 243 276 171 328 304 305 283 258 239 332 222 157 172 187 192 193 191 190 189 188 193 192 193 196 195 195 195 194 193 194 197 200 203 207 214 221 228 233 243 249 247 244 250 246 242 236 239
217 264 229 273 286 272 267 254 254 242 254 241 168 172 180 202 208 203 201 198 194 194 194 196 195 198 197 199 199 201 200 200 204 206 212 215 220 224 229 237 244 253 262 263 258 260 250 242 240
218 272 277 270 266 239 221 254 158 239 236 207 200 205 193 201 205 202 205 205 203 202 197 199 201 201 200 203 203 204 211 211 210 212 217 221 226 231 236 244 251 256 261 261 263 253 251 243 237
275 291 304 246 272 257 173 250 233 192 202 219 231 234 233 223 209 211 212 211 206 207 199 200 201 203 202 203 205 209 210 212 217 218 221 226 232 238 245 252 257 262 264 265 266 261 253 249 243
299 352 319 39 344 354 186 277 291 356 197 227 232 238 229 223 221 228 224 221 215 207 201 203 199 202 203 206 204 204 209 214 221 224 232 236 243 251 257 260 264 268 267 271 274 268 263 261 251
27 272 266 301 89 317 268 291 243 318 283 244 237 238 236 239 232 234 231 229 224 216 207 204 201 202 203 206 203 205 209 219 231 238 241 244 249 253 260 268 275 275 273 264 266 267 268 262 261
179 224 258 266 238 325 275 254 283 300 290 287 282 265 249 230 236 233 232 235 232 224 215 210 205 203 199 199 201 204 209 221 231 236 236 242 242 253 254 263 267 268 276 271 263 265 271 268 266
143 218 269 263 262 266 260 275 285 292 272 270 269 268 251 243 250 220 230 233 230 221 210 204 197 197 194 192 186 199 208 217 227 233 232 237 257 249 251 256 260 263 264 265 261 257 250 249 251
207 253 273 281 267 258 280 283 281 266 260 266 274 275 274 259 249 231 238 254 231 214 207 197 194 194 193 194 193 196 207 215 221 214 221 253 256 256 256 262 268 267 267 266 260 240 235 235 231
206 207 229 260 319 249 307 265 258 262 267 258 250 269 276 268 252 230 233 230 212 198 192 189 186 191 190 187 185 181 182 194 202 222 242 249 259 265 269 273 276 273 266 263 256 249 233 227 219
246 214 220 246 288 286 355 299 277 290 293 276 283 259 292 298 250 204 209 212 198 188 182 181 186 179 183 185 184 183 183 187 199 212 237 253 258 263 272 277 274 276 275 270 264 254 249 239 214
225 158 185 155 229 323 261 254 284 345 281 279 240 232 247 251 227 206 205 205 194 192 178 174 169 176 177 184 180 180 185 191 198 224 245 256 260 257 263 266 270 275 276 271 264 262 257 251 245
119 114 63 69 164 256 209 222 280 240 231 265 188 227 238 215 199 211 205 185 179 181 178 174 176 173 176 175 178 183 184 194 216 240 254 261 259 257 259 264 266 271 272 270 268 255 242 233 237
115 82 301 257 208 257 151 190 256 253 245 238 284 295 231 199 193 193 187 180 176 175 172 168 167 167 175 178 180 187 194 207 223 237 248 254 259 262 266 267 264 266 270 264 258 251 244 240 239
191 181 199 273 269 283 110 242 256 255 277 294 290 295 217 205 202 200 195 190 180 172 170 171 173 174 179 185 189 197 205 218 234 243 250 260 268 274 278 277 271 264 261 258 258 255 250 247 246
166 198 177 243 170 272 241 264 264 255 259 278 265 303 255 220 213 210 206 202 194 188 186 184 183 185 190 197 203 213 226 235 247 260 273 270 271 281 286 284 277 268 262 258 256 254 254 253 251
194 151 142 37 273 268 224 256 242 236 239 242 260 243 245 233 223 221 222 218 211 202 199 199 199 200 205 214 222 230 239 252 267 274 268 271 286 290 290 289 284 272 262 258 255 252 250 252 251
159 193 223 266 202 267 289 252 215 230 222 231 261 255 252 230 222 219 222 221 221 223 217 213 216 220 223 230 237 242 250 261 264 260 273 279 281 286 286 287 286 275 262 258 252 245 241 242 245
74 239 227 238 246 231 262 264 210 205 184 185 260 266 257 243 231 228 226 221 221 222 223 226 228 231 234 232 234 237 236 230 250 291 290 296 297 291 289 286 280 272 261 253 246 241 239 234 231